Flag for U.S.A. Weather past 2 weeks in Bryan – College Station, Texas, U.S.A.

Now
81 °F

Broken clouds.


Feels Like: 87 °F
Forecast: 72 / 79 °F
Wind: 10 mph from East

Location: Easterwood Field

Current Time: Sep 18, 2014 at 3:08:21 PM

Latest Report: Sep 18, 2014 at 1:53 PM


Visibility: 10 mi

Pressure: 29.85 "Hg

Humidity: 82%

Dew point: 75 °F

Location of Bryan – College StationLocation

Historic Weather in Bryan – College Station — Graph

°F

Bryan – College Station temperature yesterday

Maximum temperature yesterday: 90 °F (at 2:53 PM)
Minimum temperature yesterday: 75 °F (at 2:53 AM)
Average temperature yesterday: 80 °F

Past Weeks' High & Low Weather Summary

 TemperatureHumidityPressure
High97 °F (Sep 3, 3:53 PM)97% (Sep 4, 7:53 AM)30.21 "Hg (Sep 4, 7:53 AM)
Low63 °F (Sep 13, 7:53 AM)35% (Sep 3, 3:53 PM)29.78 "Hg (Sep 10, 5:53 PM)
Average80 °F75%29.99 "Hg
* Reported Sep 3 1:53 PM — Sep 18 1:53 PM, Bryan – College Station, Weather by CustomWeather, © 2014

Note: Actual official high and low records may vary slightly from our data, if they occured in-between our weather recording intervals... More about our weather records

Advertising

Bryan – College Station weather history for previous 24 hours

 ConditionsComfort  
Time TempWeatherWind HumidityBarometerVisibility
1:53 PM
Sep 18
81 °FBroken clouds.10 mph82%29.85 "Hg10 mi
12:53 PM81 °FOvercast.8 mph82%29.87 "Hg10 mi
11:53 AM79 °FMostly cloudy.7 mph84%29.89 "Hg10 mi
10:53 AM77 °FSunny.7 mph90%29.88 "Hg10 mi
9:53 AM76 °FMostly cloudy.No wind91%29.88 "Hg10 mi
8:53 AM77 °FPartly sunny.3 mph96%29.88 "Hg10 mi
7:53 AM77 °FLow clouds.3 mph96%29.87 "Hg10 mi
7:00 AM76 °FPassing clouds.No wind97%29.88 "Hg10 mi
5:53 AM77 °FLow clouds.3 mph94%29.86 "Hg10 mi
4:53 AM76 °FLow clouds.5 mph97%29.85 "Hg10 mi
3:53 AM76 °FLight rain. Passing clouds.5 mph94%29.85 "Hg10 mi
2:53 AM75 °FLight rain. Partly cloudy.3 mph96%29.86 "Hg9 mi
1:53 AM76 °FRain. Fog.6 mph94%29.87 "Hg5 mi
12:53 AM76 °FLight rain. Passing clouds.No wind94%29.90 "Hg7 mi
11:53 PM
Sep 17
76 °FLight rain. Passing clouds.3 mph94%29.91 "Hg10 mi
10:53 PM77 °FClear.5 mph90%29.91 "Hg10 mi
9:53 PM77 °FPassing clouds.8 mph88%29.91 "Hg10 mi
8:53 PM77 °FClear.8 mph85%29.89 "Hg10 mi
7:53 PM78 °FSunny.10 mph84%29.88 "Hg10 mi
6:53 PM80 °FSunny.16 mph76%29.87 "Hg10 mi
5:53 PM85 °FPassing clouds.14 mph68%29.85 "Hg10 mi
4:53 PM90 °FBroken clouds.N/A54%29.83 "Hg10 mi
3:53 PM89 °FPartly sunny.No wind53%29.85 "Hg10 mi
Weather by CustomWeather, © 2014

See weather overviewHow to use our weather pages